Flag for Russia Weather past 2 weeks in Pyatigorsk, Russia

Now
90 °F

Sunny.


Feels Like: 87 °F
Forecast: 64 / 79 °F
Wind: 10 mph from Northwest

Location: Mineral'Nye Vody

Current Time: Aug 28, 2014 at 11:55:46 AM

Latest Report: Aug 28, 2014 at 11:30 AM


Visibility: N/A

Pressure: 29.74 "Hg

Humidity: 29%

Dew point: 54 °F

Location of PyatigorskLocation

Historic Weather in Pyatigorsk — Graph

°F

Pyatigorsk temperature yesterday

Maximum temperature yesterday: 97 °F (at 2:30 PM)
Minimum temperature yesterday: 61 °F (at 7:00 AM)
Average temperature yesterday: 79 °F

Past Weeks' High & Low Weather Summary

 TemperatureHumidityPressure
High100 °F (Aug 16, 4:00 PM)94% (Aug 14, 3:30 AM)30.07 "Hg (Aug 14, 3:30 AM)
Low61 °F (Aug 14, 5:30 AM)16% (Aug 27, 5:30 PM)29.59 "Hg (Aug 18, 12:00 PM)
Average79 °F55%29.89 "Hg
* Reported Aug 13 10:00 AM — Aug 28 10:30 AM, Pyatigorsk, Weather by CustomWeather, © 2014

Note: Actual official high and low records may vary slightly from our data, if they occured in-between our weather recording intervals... More about our weather records

Advertising

Pyatigorsk weather history for previous 24 hours

 ConditionsComfort  
Time TempWeatherWind HumidityBarometerVisibility
10:30 AM
Aug 28
86 °FSunny.8 mph35%29.77 "HgN/A
10:00 AM81 °FSunny.8 mph45%29.77 "HgN/A
9:30 AM79 °FSunny.8 mph48%29.77 "HgN/A
9:00 AM75 °FSunny.3 mph54%29.77 "HgN/A
8:30 AM72 °FSunny.1 mph61%29.77 "HgN/A
8:00 AM68 °FSunny.No wind69%29.77 "HgN/A
7:30 AM66 °FSunny.No wind73%29.77 "HgN/A
7:00 AM64 °FClear.1 mph78%29.77 "HgN/A
6:30 AM63 °FClear.No wind77%29.77 "HgN/A
6:00 AM64 °FClear.3 mph73%29.77 "HgN/A
5:30 AM64 °FClear.3 mph73%29.77 "HgN/A
5:00 AM66 °FClear.3 mph73%29.77 "HgN/A
4:30 AM64 °FClear.3 mph78%29.77 "HgN/A
4:00 AM66 °FClear.3 mph73%29.77 "HgN/A
3:30 AM66 °FClear.6 mph73%29.77 "HgN/A
3:00 AM66 °FClear.6 mph73%29.77 "HgN/A
2:30 AM68 °FClear.3 mph69%29.77 "HgN/A
2:00 AM68 °FClear.6 mph69%29.80 "HgN/A
1:30 AM70 °FClear.3 mph57%29.77 "HgN/A
1:00 AM72 °FClear.3 mph57%29.80 "HgN/A
12:30 AM72 °FClear.3 mph61%29.80 "HgN/A
12:00 AM73 °FClear.3 mph57%29.77 "HgN/A
11:30 PM
Aug 27
75 °FClear.3 mph50%29.80 "HgN/A
11:00 PM77 °FClear.3 mph47%29.80 "HgN/A
10:30 PM79 °FClear.3 mph42%29.80 "HgN/A
9:30 PM84 °FClear.3 mph33%29.80 "HgN/A
9:00 PM86 °FClear.8 mph31%29.80 "HgN/A
8:30 PM86 °FSunny.8 mph31%29.80 "HgN/A
8:00 PM88 °FSunny.8 mph29%29.80 "HgN/A
7:00 PM93 °FSunny.8 mph21%29.80 "HgN/A
6:30 PM95 °FSunny.8 mph20%29.80 "HgN/A
6:00 PM95 °FSunny.8 mph18%29.80 "HgN/A
5:30 PM97 °FSunny.1 mph16%29.80 "HgN/A
5:00 PM97 °FSunny.6 mph17%29.80 "HgN/A
4:30 PM97 °FSunny.3 mph17%29.83 "HgN/A
4:00 PM97 °FSunny.6 mph17%29.83 "HgN/A
3:30 PM97 °FSunny.6 mph17%29.83 "HgN/A
3:00 PM97 °FSunny.6 mph19%29.83 "HgN/A
2:30 PM97 °FSunny.6 mph19%29.83 "HgN/A
2:00 PM95 °FSunny.6 mph22%29.86 "HgN/A
1:30 PM93 °FSunny.8 mph24%29.86 "HgN/A
12:30 PM93 °FPassing clouds.6 mph26%29.86 "HgN/A
12:00 PM90 °FPassing clouds.6 mph31%29.89 "HgN/A
11:30 AM88 °FScattered clouds.6 mph33%29.89 "HgN/A
11:00 AM84 °FScattered clouds.8 mph37%29.89 "HgN/A
Weather by CustomWeather, © 2014

See weather overviewHow to use our weather pages